TEMELIN Weather Reports


time (UTC)temp
F
wind
direction
speed
knots
gust
knots
rain 1hr
in
rain 24hr
in
rain mn
in
humidity
%
barometer
mb
20260507141821 59 280 7.8 0.0 0.00 0.00 0.00 54
20260507131921 59 230 6.1 0.0 0.00 0.00 0.00 54
20260507121819 57 260 7.8 0.0 0.00 0.00 0.00 62
20260507111820 61 250 10.4 0.0 0.00 0.00 0.00 59
20260507102032 57 260 6.1 0.0 0.00 0.00 0.00 62
20260507091818 57 240 7.8 0.0 0.00 0.00 0.00 62
20260507081818 55 250 10.4 0.0 0.00 0.00 0.00 66
20260507071820 55 230 12.2 0.0 0.00 0.00 0.00 71
20260507061818 54 230 7.8 0.0 0.00 0.00 0.00 76
20260507051817 48 230 7.8 0.0 0.00 0.00 0.00 93
20260507042031 50 210 4.3 0.0 0.00 0.00 0.00 87
20260507031819 48 220 4.3 0.0 0.00 0.00 0.00 93
20260507021816 48 230 7.8 0.0 0.00 0.00 0.00 93
20260507011918 52 250 6.1 0.0 0.00 0.00 0.00 87
20260507001818 52 240 4.3 0.0 0.00 0.00 0.00 93
20260506231819 52 230 6.1 0.0 0.00 0.00 0.00 93
20260506222030 54 250 10.4 0.0 0.00 0.00 0.00 93
20260506211818 54 290 6.1 0.0 0.00 0.00 0.00 93
20260506201835 54 280 12.2 20.9 0.00 0.00 0.00 93
20260506191922 59 280 6.1 0.0 0.00 0.00 0.00 77
20260506181907 63 10 13.9 0.0 0.00 0.00 0.00 63
20260506171822 64 10 10.4 0.0 0.00 0.00 0.00 55
20260506162031 72 90 6.1 0.0 0.00 0.00 0.00 37
20260506151834 72 100 10.4 0.0 0.00 0.00 0.00 37